Flag for Montenegro Weather past 2 weeks in Nikšić, Montenegro

Now
81 °F

Partly sunny.


Feels Like: 83 °F
Forecast: 58 / 86 °F
Wind: 3 mph from North

Location: Niksic

Current Time: Aug 3, 2015 at 11:35:13 AM

Latest Report: Aug 3, 2015 at 10:00 AM


Visibility: 13 mi

Pressure: 29.95 "Hg (27.86 "Hg at 635m altitude)

Humidity: 54%

Dew point: 63 °F

Location of NikšićLocation

Historic Weather in Nikšić — Graph

°F

Nikšić temperature yesterday

Maximum temperature yesterday: 95 °F (at 4:00 PM)
Minimum temperature yesterday: 66 °F (at 6:00 AM)
Average temperature yesterday: 82 °F

Past Weeks' High & Low Weather Summary

 TemperatureHumidityPressure
High99 °F (Jul 20, 4:00 PM)100% (Jul 27, 8:00 AM)30.06 "Hg (Jul 27, 8:00 AM)
Low60 °F (Jul 28, 6:00 AM)21% (Jul 21, 5:00 PM)29.69 "Hg (Jul 29, 3:00 PM)
Average80 °F64%29.83 "Hg
* Reported Jul 19 10:00 AM — Aug 3 10:00 AM, Nikšić, Weather by CustomWeather, © 2015

Note: Actual official high and low records may vary slightly from our data, if they occured in-between our weather recording intervals... More about our weather records

Advertising

Nikšić weather history for previous 24 hours

 ConditionsComfort  
Time TempWeatherWind HumidityBarometerVisibility
10:00 AM
Mon, Aug 3
81 °FPartly sunny.3 mph54%29.95 "Hg12 mi
9:00 AM78 °FPartly sunny.3 mph64%29.96 "Hg12 mi
8:00 AM73 °FPartly sunny.5 mph83%29.99 "Hg12 mi
7:00 AM70 °FPartly sunny.1 mph86%30.01 "Hg12 mi
2:00 AM70 °FPassing clouds.1 mph75%30.06 "Hg12 mi
11:00 PM
Sun, Aug 2
74 °FPassing clouds.3 mph72%30.01 "Hg12 mi
10:00 PM77 °FPassing clouds.1 mph64%29.99 "Hg12 mi
9:00 PM81 °FPassing clouds.1 mph58%29.96 "Hg12 mi
8:00 PM83 °FPartly sunny.2 mph54%29.96 "Hg12 mi
7:00 PM85 °FOvercast.3 mph47%29.96 "Hg12 mi
6:00 PM89 °FPartly sunny.7 mph39%29.94 "Hg12 mi
5:00 PM93 °FScattered clouds.5 mph37%29.99 "Hg12 mi
4:00 PM95 °FScattered clouds.7 mph37%29.89 "Hg12 mi
3:00 PM94 °FScattered clouds.6 mph38%29.89 "Hg12 mi
2:00 PM94 °FScattered clouds.3 mph41%29.92 "Hg12 mi
1:00 PM92 °FScattered clouds.6 mph49%29.93 "Hg12 mi
12:00 PM89 °FScattered clouds.5 mph57%29.85 "Hg12 mi
11:00 AM86 °FScattered clouds.5 mph63%29.86 "Hg12 mi
Weather by CustomWeather, © 2015

See weather overviewHow to use our weather pages